Weather History for Myrtle Beach, SC

Change the Weather History Date:

Tuesday, May 13, 2014

  Actual Average Record
Temperature  
Mean Temperature 76 °F -  
Max Temperature 82 °F 75 °F 92 °F (1953)
Min Temperature 69 °F 58 °F 44 °F (1952)
Cooling Degree Days 10    
Growing Degree Days 26 (Base 50)    
Moisture  
Dew Point 67 °F    
Average Humidity 79    
Maximum Humidity 94    
Minimum Humidity 58    
Precipitation  
Precipitation 0.00 in - - ()
Sea Level Pressure  
Sea Level Pressure 30.16 in    
Wind  
Wind Speed 5 mph (SSW)    
Max Wind Speed 13 mph    
Max Gust Speed -    
Visibility 10 miles    
Events      
Averages and records for this station are not official NWS values.
T = Trace of Precipitation, MM = Missing Value Source: NWS Daily Summary

Daily Weather History Graph

Daily Weather History Graph

Search for Another Location

Airport:

Trip Planner

Search our weather history database for the weather conditions in past years. The results will help you decide how hot, cold, wet, or windy it might be!

Date:

Astronomy

May. 13, 2014 Rise Set
Actual Time 6:16 AM EDT 8:08 PM EDT
Civil Twilight 5:49 AM EDT 8:35 PM EDT
Nautical Twilight 5:15 AM EDT 9:08 PM EDT
Astronomical Twilight 4:40 AM EDT 9:44 PM EDT
Moon 7:11 PM EDT (5/13) 5:26 AM EDT (5/13)
Length of Visible Light 14h 46m
Length of Day
13h 51m
Waxing Gibbous, 98% of the Moon is Illuminated
May 13
Waxing Gibbous
May 14
Full
May 21
Last Quarter
May 28
New
Jun 5
First Quarter

Hourly Weather History & Observations

Time (EDT) Temp. Heat Index Dew Point Humidity Pressure Visibility Wind Dir Wind Speed Gust Speed Precip Events Conditions
12:15 AM 73.4 °F - 66.2 °F 78% 30.16 in 10.0 mi SSW 3.5 mph - N/A   Clear
12:35 AM 73.4 °F - 66.2 °F 78% 30.15 in 10.0 mi SSW 6.9 mph - N/A   Clear
12:55 AM 73.4 °F - 66.2 °F 78% 30.15 in 10.0 mi SSW 3.5 mph - N/A   Clear
1:15 AM 73.4 °F - 66.2 °F 78% 30.15 in 10.0 mi WSW 3.5 mph - N/A   Clear
1:35 AM 71.6 °F - 66.2 °F 83% 30.15 in 10.0 mi SSW 4.6 mph - N/A   Clear
1:55 AM 71.6 °F - 68.0 °F 88% 30.15 in 10.0 mi SSW 3.5 mph - N/A   Clear
2:15 AM 71.6 °F - 66.2 °F 83% 30.15 in 10.0 mi South 3.5 mph - N/A   Clear
2:35 AM 71.6 °F - 68.0 °F 88% 30.14 in 10.0 mi Calm Calm - N/A   Clear
2:55 AM 71.6 °F - 68.0 °F 88% 30.14 in 10.0 mi SSW 3.5 mph - N/A   Clear
3:15 AM 71.6 °F - 66.2 °F 83% 30.14 in 10.0 mi SW 3.5 mph - N/A   Clear
3:35 AM 71.6 °F - 68.0 °F 88% 30.14 in 10.0 mi Calm Calm - N/A   Clear
3:55 AM 69.8 °F - 66.2 °F 88% 30.14 in 10.0 mi Calm Calm - N/A   Clear
4:15 AM 69.8 °F - 66.2 °F 88% 30.14 in 10.0 mi Calm Calm - N/A   Clear
4:35 AM 69.8 °F - 66.2 °F 88% 30.14 in 8.0 mi Calm Calm - N/A   Clear
4:55 AM 71.6 °F - 68.0 °F 88% 30.14 in 10.0 mi Calm Calm - N/A   Clear
5:15 AM 69.8 °F - 68.0 °F 94% 30.15 in 9.0 mi Calm Calm - N/A   Clear
5:35 AM 71.6 °F - 68.0 °F 88% 30.15 in 10.0 mi Calm Calm - N/A   Clear
5:55 AM 69.8 °F - 66.2 °F 88% 30.16 in 9.0 mi Calm Calm - N/A   Partly Cloudy
6:45 AM 69.8 °F - 66.2 °F 88% 30.17 in 5.0 mi Calm Calm - N/A   Mostly Cloudy
7:45 AM 71.6 °F - 69.8 °F 94% 30.19 in 7.0 mi Calm Calm - N/A   Mostly Cloudy
9:45 AM 80.6 °F 83.2 °F 68.0 °F 65% 30.18 in 10.0 mi SSW 11.5 mph - N/A   Scattered Clouds
10:45 AM 80.6 °F 83.2 °F 68.0 °F 65% 30.19 in 10.0 mi South 11.5 mph - N/A   Scattered Clouds
11:45 AM 80.6 °F 83.9 °F 69.8 °F 70% 30.19 in 10.0 mi South 11.5 mph - N/A   Scattered Clouds
12:45 PM 82.4 °F 84.6 °F 66.2 °F 58% 30.19 in 10.0 mi South 11.5 mph - N/A   Scattered Clouds
1:45 PM 82.4 °F 84.6 °F 66.2 °F 58% 30.19 in 10.0 mi South 11.5 mph - N/A   Scattered Clouds
2:50 PM 82.4 °F 84.6 °F 66.2 °F 58% 30.16 in 10.0 mi South 12.7 mph - N/A   Partly Cloudy
3:45 PM 80.6 °F 82.7 °F 66.2 °F 61% 30.15 in 10.0 mi South 11.5 mph - N/A   Partly Cloudy
4:45 PM 80.6 °F 82.7 °F 66.2 °F 61% 30.14 in 10.0 mi South 11.5 mph - N/A   Clear
5:45 PM 80.6 °F 82.7 °F 66.2 °F 61% 30.13 in 10.0 mi South 11.5 mph - N/A   Clear
6:45 PM 78.8 °F - 68.0 °F 69% 30.12 in 10.0 mi South 12.7 mph - N/A   Clear
7:45 PM 77.0 °F - 68.0 °F 74% 30.14 in 10.0 mi SSW 10.4 mph - N/A   Clear
8:45 PM 75.2 °F - 68.0 °F 78% 30.15 in 10.0 mi SSW 9.2 mph - N/A   Clear
9:45 PM 73.4 °F - 69.8 °F 88% 30.15 in 10.0 mi South 6.9 mph - N/A   Clear
10:55 PM 73.4 °F - 69.8 °F 88% 30.18 in 10.0 mi South 6.9 mph - N/A   Clear
11:15 PM 73.4 °F - 69.8 °F 88% 30.18 in 10.0 mi South 6.9 mph - N/A   Clear
11:35 PM 73.4 °F - 69.8 °F 88% 30.18 in 10.0 mi South 9.2 mph - N/A   Clear
11:55 PM 73.4 °F - 68.0 °F 83% 30.17 in 10.0 mi South 6.9 mph - N/A   Clear